{"data":{"norad_id":59744,"epoch":"2026-05-25T04:46:41.796768Z","epoch_age_seconds":48004,"freshness":"FRESH","line1":"1 59744U 24090Q   26145.19909487  .00000615  00000+0  31871-4 0  9994","line2":"2 59744  42.9999 111.2062 0000862 263.5977  96.4777 15.27576683115143","mean_motion":15.27576683,"eccentricity":8.62e-5,"inclination_deg":42.9999,"raan_deg":111.2062,"arg_perigee_deg":263.5977,"mean_anomaly_deg":96.4777,"bstar":3.1871e-5,"rev_number":11514,"period_min":94.266953405703,"perigee_km":482.46759325127,"apogee_km":483.65046344655,"semimajor_km":6861.1960283489,"source":"CELESTRAK","updated_at":"2026-05-25T13:38:19.053370Z"}}